Flag for U.S.A. Weather past 2 weeks in Oxnard, California, U.S.A.

Now
74 °F

Sunny.


Feels Like: 77 °F
Forecast: 65 / 74 °F
Wind: 12 mph from West

Location: Oxnard Airport

Current Time: Sep 3, 2015 at 4:30:01 PM

Latest Report: Sep 3, 2015 at 3:51 PM


Visibility: 10 mi

Pressure: 29.83 "Hg

Humidity: 62%

Dew point: 60 °F

Location of OxnardLocation

Historic Weather in Oxnard — Graph

°F

Oxnard temperature yesterday

Maximum temperature yesterday: 75 °F (at 9:51 AM)
Minimum temperature yesterday: 67 °F (at 3:51 AM)
Average temperature yesterday: 71 °F

Past Weeks' High & Low Weather Summary

 TemperatureHumidityPressure
High86 °F (Aug 28, 12:51 PM)93% (Aug 26, 12:51 AM)29.98 "Hg (Aug 26, 12:51 AM)
Low62 °F (Aug 24, 6:51 AM)40% (Aug 28, 12:51 PM)29.80 "Hg (Aug 28, 6:51 PM)
Average71 °F76%29.89 "Hg
* Reported Aug 19 2:51 PM — Sep 3 2:51 PM, Oxnard, Weather by CustomWeather, © 2015

Note: Actual official high and low records may vary slightly from our data, if they occured in-between our weather recording intervals... More about our weather records

Advertising

Oxnard weather history for previous 24 hours

 ConditionsComfort  
Time TempWeatherWind HumidityBarometerVisibility
2:51 PM
Thu, Sep 3
75 °FPassing clouds.13 mph58%29.86 "Hg10 mi
1:51 PM73 °FScattered clouds.10 mph62%29.88 "Hg10 mi
12:51 PM72 °FPartly sunny.10 mph64%29.89 "Hg10 mi
11:51 AM75 °FPassing clouds.8 mph55%29.91 "Hg10 mi
10:51 AM74 °FPassing clouds.6 mph60%29.92 "Hg10 mi
9:51 AM71 °FPartly sunny.No wind61%29.92 "Hg10 mi
8:51 AM71 °FScattered clouds.No wind66%29.92 "Hg10 mi
7:51 AM67 °FOvercast.6 mph76%29.91 "Hg10 mi
6:51 AM64 °FOvercast.5 mph81%29.91 "Hg9 mi
5:51 AM64 °FOvercast.No wind84%29.90 "Hg10 mi
4:51 AM63 °FPassing clouds.5 mph84%29.89 "Hg10 mi
4:02 AM64 °FPassing clouds.3 mph81%29.90 "Hg10 mi
3:51 AM64 °FPassing clouds.No wind81%29.90 "Hg10 mi
2:51 AM65 °FClear.5 mph81%29.90 "Hg10 mi
1:51 AM66 °FClear.3 mph78%29.90 "Hg10 mi
12:51 AM68 °FPassing clouds.5 mph78%29.91 "Hg10 mi
11:51 PM
Wed, Sep 2
68 °FPassing clouds.3 mph73%29.92 "Hg10 mi
10:51 PM69 °FClear.No wind70%29.92 "Hg10 mi
9:51 PM69 °FClear.3 mph70%29.91 "Hg10 mi
8:51 PM68 °FClear.7 mph73%29.90 "Hg10 mi
7:51 PM69 °FScattered clouds.8 mph73%29.88 "Hg10 mi
6:51 PM71 °FSunny.9 mph73%29.88 "Hg10 mi
5:51 PM73 °FSunny.9 mph62%29.88 "Hg10 mi
4:51 PM73 °FSunny.9 mph62%29.89 "Hg10 mi
Weather by CustomWeather, © 2015

See weather overviewHow to use our weather pages